TimeCST,TemperatureF,Dew PointF,Humidity,Sea Level PressureIn,VisibilityMPH,Wind Direction,Wind SpeedMPH,Gust SpeedMPH,PrecipitationIn,Events,Conditions,WindDirDegrees,DateUTC
12:53 AM,34.0,21.9,61,30.16,10.0,NNE,3.5,-,N/A,,Clear,20,2013-02-12 06:53:00
1:53 AM,35.1,21.9,59,30.15,10.0,North,4.6,-,N/A,,Clear,360,2013-02-12 07:53:00
2:53 AM,35.1,21.9,59,30.14,10.0,North,3.5,-,N/A,,Clear,360,2013-02-12 08:53:00
3:53 AM,28.9,21.9,75,30.13,10.0,NNE,3.5,-,N/A,,Clear,20,2013-02-12 09:53:00
4:53 AM,28.0,21.0,75,30.12,10.0,Calm,Calm,-,N/A,,Clear,0,2013-02-12 10:53:00
5:53 AM,26.1,21.0,81,30.12,10.0,NE,3.5,-,N/A,,Clear,40,2013-02-12 11:53:00
6:53 AM,28.9,21.0,72,30.14,10.0,NE,3.5,-,N/A,,Clear,40,2013-02-12 12:53:00
7:53 AM,30.9,24.1,76,30.16,10.0,ENE,3.5,-,N/A,,Clear,60,2013-02-12 13:53:00
8:53 AM,37.0,27.0,67,30.09,10.0,NE,8.1,-,N/A,,Clear,50,2013-02-12 14:53:00
9:53 AM,39.0,28.0,65,30.11,10.0,ENE,5.8,-,N/A,,Clear,70,2013-02-12 15:53:00
10:53 AM,43.0,26.1,51,30.11,10.0,NE,11.5,-,N/A,,Clear,50,2013-02-12 16:53:00
11:53 AM,44.1,26.1,49,30.12,10.0,NE,6.9,-,N/A,,Mostly Cloudy,50,2013-02-12 17:53:00
12:53 PM,46.0,28.0,50,30.06,10.0,ESE,6.9,-,N/A,,Mostly Cloudy,120,2013-02-12 18:53:00
1:53 PM,46.0,25.0,44,30.01,10.0,East,5.8,-,N/A,,Mostly Cloudy,90,2013-02-12 19:53:00
2:53 PM,46.0,25.0,44,29.98,10.0,East,3.5,-,N/A,,Mostly Cloudy,100,2013-02-12 20:53:00
4:53 PM,44.1,27.0,51,29.96,10.0,Calm,Calm,-,N/A,,Overcast,0,2013-02-12 22:53:00
5:53 PM,43.0,27.0,53,29.94,10.0,Calm,Calm,-,N/A,,Overcast,0,2013-02-12 23:53:00
6:53 PM,41.0,30.0,65,29.93,10.0,ENE,3.5,-,N/A,,Overcast,70,2013-02-13 00:53:00
7:53 PM,39.9,30.0,68,29.93,10.0,NNE,5.8,-,0.00,,Overcast,20,2013-02-13 01:53:00
8:53 PM,42.1,27.0,55,29.95,10.0,North,3.5,-,N/A,,Overcast,350,2013-02-13 02:53:00
9:53 PM,39.0,32.0,76,29.96,10.0,NNW,5.8,-,N/A,,Overcast,340,2013-02-13 03:53:00
10:53 PM,37.0,32.0,82,29.96,10.0,North,6.9,-,0.00,,Overcast,360,2013-02-13 04:53:00
11:19 PM,35.6,32.0,87,29.93,8.0,NNW,11.5,-,0.01,Rain,Light Rain,340,2013-02-13 05:19:00
11:53 PM,35.1,32.0,89,29.94,7.0,North,5.8,-,0.03,Rain,Light Freezing Rain,350,2013-02-13 05:53:00